星链-1319 (STARLINK-1319 )

导读 | 星芒AI

STARLINK-1319 是 SpaceX Starlink 卫星互联网项目中的第1319颗卫星,属于低轨卫星群的一部分。该卫星于2023年发射,旨在为全球用户提供高速、低延迟的互联网服务。它运行在约550公里高的近地轨道,采用先进通信技术,支持宽带接入。Starlink 项目致力于改善偏远地区网络覆盖,推动全球数字连接。STARLINK-1319 的部署进一步增强了 Starlink 网络的稳定性和服务能力。

基本信息
目录编号:
45379
目录名称:
STARLINK-1319
国际标识:
2020-019V
轨道中心:
EARTH
卫星名称:
星链-1319
卫星全名:
星链-1319 (STARLINK-1319 )
卫星状态:
在轨 (已飞行2099 天)
发射日期:
2020-03-18 UTC
国别 :
美国 (US)
星等 :
--
轨道信息
数据来源 国际轨道数据
星历时间: 2025-12-15T06:18:47+0800
1天前
查看轨道信息
半长轴: 6816.575km
偏心率: 0.0007853
轨道倾角: 53.053°
近地点辐角 150.525°
升交点赤经 176.988°
平近点角 209.620°
近地点: 433.086km
远地点: 443.794km
周期: 93.349分钟
每日圈数: 15.426006
详细信息
固有亮度:
5
最大亮度:
2.5
卫星平台:
Starlink V1.0
覆盖范围:
全球
运营商:
太空探索技术公司
运营商所在国:
美国
制造商(研发单位):
太空探索技术公司
制造商所在国:
美国
使用方式:
暂无
卫星简介
星链(Starlink)计划是由太空探索技术公司(SpaceX)提出的一个巨型低轨卫星互联网星座项目,计划在2019年至2024年间在太空搭建由约1.2万颗卫星组成的“星链”网络,其中1584颗将部署在地球上空550千米处的近地轨道,并从2020年开始工作。该卫星仍在工作。
2D轨道图
3D轨道图
轨道高度分析图
轨道倾角分析图
轨道综合分析图
查看轨道综合分析图